QPF
0.00 0.00 0.00 0.00 0.00 0.00 0.01 0.00 0.01 0.01 0.00 0.00 0.00 0.00 0.01 0.01 0.01 0.01 0.01 0.02 0.03 0.03 0.03 0.03 0.04 0.06 0.05 0.03 0.04 0.06 0.05 0.06 0.06 0.06 0.08 0.09 0.09 0.11 0.09 0.08 0.06 0.07 0.08 0.09
0.01 0.00 0.00 0.00 0.00 0.00 0.00 0.00 0.00 0.00 0.00 0.00 0.00 0.00 0.01 0.01 0.01 0.01 0.01 0.02 0.02 0.03 0.03 0.03 0.04 0.06 0.07 0.05 0.04 0.05 0.05 0.06 0.07 0.07 0.09 0.08 0.07 0.08 0.09 0.10 0.09 0.10 0.10 0.08
0.02 0.00 0.01 0.01 0.00 0.00 0.01 0.00 0.00 0.01 0.01 0.01 0.00 0.00 0.00 0.00 0.01 0.01 0.02 0.02 0.02 0.02 0.03 0.04 0.05 0.06 0.08 0.08 0.07 0.06 0.06 0.06 0.07 0.07 0.08 0.08 0.06 0.09 0.11 0.12 0.14 0.13 0.10 0.07
0.03 0.01 0.01 0.00 0.00 0.00 0.01 0.01 0.00 0.00 0.00 0.00 0.00 0.00 0.00 0.00 0.00 0.01 0.02 0.02 0.02 0.03 0.03 0.04 0.05 0.04 0.06 0.09 0.10 0.08 0.08 0.08 0.08 0.09 0.09 0.09 0.10 0.10 0.09 0.11 0.13 0.11 0.09 0.09
0.05 0.03 0.01 0.00 0.00 0.00 0.00 0.00 0.00 0.00 0.00 0.00 0.00 0.00 0.00 0.00 0.00 0.01 0.01 0.02 0.02 0.03 0.03 0.04 0.05 0.05 0.06 0.10 0.10 0.09 0.10 0.10 0.10 0.10 0.10 0.10 0.08 0.06 0.07 0.08 0.09 0.09 0.09 0.10
0.08 0.04 0.01 0.00 0.00 0.00 0.00 0.00 0.00 0.00 0.00 0.00 0.00 0.01 0.00 0.00 0.00 0.01 0.01 0.02 0.02 0.03 0.03 0.05 0.07 0.06 0.06 0.06 0.06 0.08 0.09 0.10 0.09 0.09 0.08 0.07 0.06 0.07 0.07 0.06 0.07 0.08 0.09 0.10
0.06 0.05 0.01 0.00 0.00 0.00 0.00 0.00 0.00 0.00 0.00 0.00 0.00 0.01 0.00 0.00 0.01 0.01 0.01 0.01 0.02 0.02 0.03 0.05 0.07 0.05 0.06 0.05 0.05 0.06 0.07 0.08 0.09 0.09 0.09 0.08 0.07 0.07 0.08 0.08 0.08 0.08 0.08 0.10
0.03 0.05 0.02 0.00 0.00 0.00 0.00 0.00 0.00 0.00 0.00 0.00 0.00 0.00 0.00 0.00 0.00 0.01 0.01 0.01 0.01 0.01 0.03 0.05 0.05 0.05 0.06 0.06 0.05 0.05 0.05 0.06 0.06 0.07 0.07 0.07 0.07 0.07 0.08 0.09 0.09 0.08 0.08 0.09
0.01 0.01 0.00 0.00 0.00 0.00 0.00 0.00 0.00 0.00 0.00 0.00 0.00 0.00 0.00 0.00 0.00 0.01 0.01 0.01 0.01 0.01 0.02 0.04 0.05 0.04 0.06 0.07 0.05 0.04 0.04 0.04 0.04 0.05 0.05 0.06 0.07 0.08 0.08 0.08 0.08 0.08 0.07 0.08
0.00 0.00 0.00 0.00 0.00 0.00 0.00 0.00 0.00 0.00 0.00 0.00 0.00 0.00 0.00 0.00 0.00 0.01 0.01 0.01 0.01 0.01 0.02 0.03 0.04 0.05 0.06 0.05 0.04 0.03 0.03 0.04 0.04 0.05 0.05 0.06 0.07 0.07 0.08 0.09 0.09 0.07 0.07 0.07
0.00 0.00 0.00 0.00 0.00 0.00 0.00 0.00 0.00 0.00 0.00 0.00 0.00 0.00 0.00 0.00 0.01 0.01 0.01 0.01 0.02 0.02 0.02 0.04 0.04 0.04 0.04 0.03 0.03 0.04 0.04 0.04 0.05 0.04 0.05 0.05 0.05 0.06 0.08 0.09 0.08 0.07 0.06 0.06
0.01 0.01 0.01 0.01 0.00 0.00 0.00 0.00 0.00 0.00 0.00 0.00 0.00 0.00 0.00 0.00 0.00 0.01 0.01 0.01 0.01 0.02 0.02 0.03 0.03 0.03 0.03 0.02 0.02 0.04 0.04 0.04 0.05 0.05 0.04 0.05 0.05 0.06 0.09 0.11 0.09 0.07 0.06 0.06
0.01 0.01 0.01 0.00 0.00 0.00 0.00 0.00 0.00 0.00 0.00 0.00 0.00 0.00 0.00 0.00 0.00 0.01 0.01 0.01 0.02 0.02 0.02 0.02 0.02 0.03 0.05 0.04 0.03 0.03 0.04 0.04 0.04 0.04 0.05 0.05 0.05 0.06 0.07 0.10 0.10 0.07 0.05 0.05
0.00 0.01 0.01 0.00 0.00 0.00 0.00 0.00 0.00 0.00 0.00 0.00 0.00 0.00 0.00 0.00 0.00 0.01 0.01 0.02 0.02 0.02 0.02 0.02 0.02 0.03 0.04 0.03 0.03 0.02 0.02 0.03 0.03 0.04 0.04 0.04 0.05 0.06 0.06 0.07 0.08 0.07 0.06 0.06
0.00 0.00 0.00 0.00 0.00 0.00 0.00 0.00 0.00 0.00 0.00 0.00 0.00 0.00 0.00 0.00 0.00 0.01 0.01 0.02 0.02 0.01 0.01 0.01 0.02 0.02 0.03 0.02 0.02 0.02 0.02 0.02 0.02 0.03 0.03 0.04 0.05 0.07 0.07 0.06 0.06 0.07 0.07 0.08
0.00 0.00 0.00 0.00 0.00 0.00 0.00 0.00 0.00 0.00 0.00 0.00 0.00 0.00 0.01 0.01 0.01 0.01 0.02 0.02 0.01 0.02 0.02 0.02 0.02 0.02 0.02 0.02 0.01 0.02 0.03 0.03 0.03 0.03 0.03 0.03 0.04 0.05 0.07 0.07 0.08 0.09 0.08 0.07
0.00 0.00 0.00 0.00 0.00 0.00 0.00 0.00 0.00 0.00 0.00 0.00 0.00 0.00 0.00 0.00 0.01 0.01 0.02 0.02 0.02 0.02 0.02 0.03 0.03 0.02 0.02 0.02 0.02 0.02 0.02 0.03 0.03 0.03 0.03 0.03 0.04 0.04 0.05 0.06 0.06 0.06 0.06 0.06
0.00 0.00 0.00 0.00 0.00 0.00 0.00 0.00 0.00 0.00 0.00 0.01 0.01 0.01 0.00 0.00 0.01 0.01 0.02 0.02 0.02 0.02 0.02 0.03 0.03 0.03 0.02 0.02 0.02 0.02 0.02 0.03 0.03 0.03 0.03 0.03 0.03 0.04 0.05 0.05 0.05 0.06 0.06 0.07
0.00 0.00 0.00 0.00 0.00 0.00 0.00 0.00 0.00 0.00 0.00 0.01 0.01 0.01 0.01 0.01 0.01 0.02 0.02 0.02 0.02 0.02 0.02 0.03 0.03 0.03 0.02 0.02 0.03 0.02 0.03 0.03 0.03 0.03 0.03 0.04 0.04 0.04 0.04 0.05 0.05 0.06 0.06 0.07
0.00 0.00 0.00 0.00 0.00 0.00 0.00 0.00 0.00 0.00 0.00 0.01 0.01 0.01 0.00 0.01 0.02 0.02 0.02 0.02 0.02 0.02 0.02 0.03 0.03 0.03 0.02 0.03 0.03 0.03 0.03 0.03 0.03 0.02 0.02 0.03 0.03 0.04 0.04 0.05 0.05 0.06 0.06 0.06
0.00 0.00 0.00 0.00 0.00 0.00 0.00 0.00 0.00 0.00 0.00 0.01 0.01 0.01 0.01 0.01 0.01 0.02 0.02 0.02 0.02 0.02 0.02 0.03 0.03 0.03 0.03 0.03 0.03 0.03 0.03 0.03 0.03 0.02 0.02 0.02 0.03 0.03 0.04 0.04 0.04 0.06 0.06 0.06
0.00 0.00 0.00 0.00 0.00 0.00 0.00 0.00 0.00 0.00 0.00 0.01 0.01 0.01 0.01 0.01 0.01 0.01 0.01 0.02 0.02 0.02 0.02 0.02 0.02 0.03 0.03 0.03 0.03 0.03 0.04 0.04 0.03 0.02 0.02 0.02 0.02 0.03 0.03 0.03 0.04 0.05 0.07 0.07
0.00 0.00 0.00 0.00 0.00 0.00 0.00 0.00 0.00 0.00 0.00 0.01 0.01 0.01 0.01 0.01 0.01 0.01 0.01 0.02 0.02 0.03 0.03 0.03 0.03 0.03 0.03 0.03 0.03 0.03 0.03 0.03 0.03 0.03 0.02 0.02 0.02 0.03 0.03 0.03 0.03 0.05 0.07 0.08
0.00 0.00 0.00 0.00 0.00 0.00 0.00 0.00 0.00 0.01 0.01 0.01 0.01 0.02 0.02 0.01 0.01 0.01 0.01 0.02 0.03 0.03 0.03 0.03 0.03 0.03 0.03 0.03 0.03 0.03 0.03 0.03 0.03 0.02 0.02 0.02 0.02 0.03 0.03 0.04 0.04 0.06 0.08 0.09
0.00 0.00 0.00 0.00 0.00 0.00 0.00 0.00 0.01 0.01 0.01 0.01 0.01 0.01 0.02 0.01 0.01 0.01 0.01 0.02 0.03 0.04 0.03 0.03 0.03 0.03 0.03 0.03 0.03 0.02 0.02 0.02 0.02 0.02 0.02 0.02 0.02 0.02 0.03 0.04 0.06 0.07 0.09 0.09
0.00 0.00 0.00 0.00 0.00 0.00 0.00 0.00 0.01 0.01 0.01 0.01 0.01 0.01 0.01 0.01 0.02 0.02 0.02 0.02 0.03 0.03 0.03 0.03 0.03 0.03 0.03 0.03 0.03 0.02 0.02 0.02 0.02 0.02 0.02 0.02 0.02 0.02 0.03 0.04 0.06 0.08 0.08 0.09
0.00 0.00 0.00 0.00 0.00 0.00 0.00 0.01 0.01 0.01 0.01 0.01 0.01 0.01 0.02 0.02 0.02 0.02 0.02 0.02 0.02 0.02 0.03 0.03 0.04 0.04 0.03 0.03 0.03 0.02 0.02 0.02 0.02 0.02 0.02 0.03 0.03 0.04 0.04 0.05 0.06 0.07 0.08 0.08
MSLP
1015.37 1015.71 1015.95 1016.04 1015.93 1015.60 1015.04 1014.29 1013.40 1012.43 1011.48 1010.64 1009.97 1009.55 1009.38 1009.47 1009.80 1010.29 1010.90 1011.55 1012.17 1012.73 1013.18 1013.52 1013.73 1013.81 1013.79 1013.64 1013.38 1013.01 1012.52 1011.92 1011.22 1010.43 1009.60 1008.76 1007.94 1007.18 1006.48 1005.85 1005.25 1004.65 1003.98 1003.21
1014.66 1014.81 1014.86 1014.75 1014.48 1014.03 1013.42 1012.68 1011.86 1011.03 1010.26 1009.62 1009.18 1008.96 1008.99 1009.25 1009.70 1010.29 1010.95 1011.63 1012.25 1012.79 1013.21 1013.51 1013.69 1013.74 1013.68 1013.51 1013.24 1012.85 1012.36 1011.75 1011.05 1010.27 1009.43 1008.58 1007.75 1006.97 1006.25 1005.60 1004.98 1004.38 1003.74 1003.01
1013.74 1013.70 1013.54 1013.25 1012.84 1012.29 1011.65 1010.95 1010.24 1009.58 1009.02 1008.63 1008.44 1008.47 1008.72 1009.15 1009.74 1010.42 1011.13 1011.81 1012.42 1012.91 1013.28 1013.53 1013.65 1013.65 1013.56 1013.37 1013.08 1012.70 1012.21 1011.62 1010.94 1010.17 1009.34 1008.48 1007.64 1006.83 1006.08 1005.39 1004.75 1004.14 1003.50 1002.80
1012.66 1012.44 1012.11 1011.68 1011.16 1010.57 1009.94 1009.32 1008.75 1008.28 1007.96 1007.82 1007.88 1008.15 1008.60 1009.21 1009.91 1010.66 1011.40 1012.07 1012.63 1013.07 1013.37 1013.55 1013.60 1013.56 1013.44 1013.23 1012.94 1012.56 1012.10 1011.53 1010.87 1010.11 1009.29 1008.43 1007.57 1006.74 1005.95 1005.23 1004.56 1003.92 1003.28 1002.59
1011.48 1011.12 1010.68 1010.17 1009.61 1009.04 1008.48 1007.98 1007.57 1007.31 1007.21 1007.30 1007.59 1008.06 1008.68 1009.41 1010.19 1010.98 1011.71 1012.34 1012.85 1013.21 1013.44 1013.55 1013.55 1013.46 1013.31 1013.09 1012.80 1012.45 1012.00 1011.46 1010.82 1010.09 1009.27 1008.41 1007.53 1006.67 1005.86 1005.10 1004.40 1003.74 1003.09 1002.41
1010.24 1009.82 1009.35 1008.84 1008.32 1007.82 1007.38 1007.03 1006.80 1006.73 1006.83 1007.11 1007.57 1008.18 1008.91 1009.70 1010.52 1011.29 1011.99 1012.56 1013.00 1013.30 1013.46 1013.51 1013.46 1013.35 1013.18 1012.95 1012.68 1012.34 1011.92 1011.40 1010.78 1010.06 1009.26 1008.39 1007.50 1006.62 1005.78 1005.00 1004.28 1003.61 1002.95 1002.28
1009.01 1008.60 1008.16 1007.73 1007.32 1006.96 1006.68 1006.50 1006.46 1006.56 1006.82 1007.23 1007.80 1008.48 1009.24 1010.03 1010.81 1011.54 1012.17 1012.68 1013.04 1013.28 1013.39 1013.39 1013.32 1013.19 1013.02 1012.80 1012.54 1012.22 1011.81 1011.31 1010.71 1010.01 1009.21 1008.35 1007.46 1006.57 1005.72 1004.93 1004.20 1003.53 1002.88 1002.21
1007.80 1007.47 1007.14 1006.85 1006.61 1006.44 1006.35 1006.36 1006.48 1006.72 1007.09 1007.58 1008.18 1008.85 1009.58 1010.31 1011.02 1011.67 1012.21 1012.64 1012.94 1013.13 1013.20 1013.19 1013.11 1012.98 1012.82 1012.61 1012.37 1012.05 1011.67 1011.18 1010.59 1009.90 1009.11 1008.26 1007.38 1006.50 1005.66 1004.88 1004.16 1003.49 1002.85 1002.20
1006.66 1006.46 1006.30 1006.20 1006.17 1006.20 1006.31 1006.49 1006.76 1007.11 1007.54 1008.04 1008.62 1009.24 1009.88 1010.51 1011.11 1011.65 1012.10 1012.45 1012.70 1012.85 1012.90 1012.89 1012.82 1012.70 1012.55 1012.36 1012.13 1011.82 1011.44 1010.97 1010.39 1009.71 1008.94 1008.12 1007.26 1006.41 1005.60 1004.84 1004.14 1003.49 1002.86 1002.22
1005.65 1005.61 1005.64 1005.75 1005.93 1006.18 1006.47 1006.81 1007.19 1007.61 1008.06 1008.54 1009.05 1009.57 1010.09 1010.59 1011.07 1011.49 1011.85 1012.13 1012.33 1012.45 1012.51 1012.50 1012.44 1012.34 1012.20 1012.02 1011.79 1011.49 1011.12 1010.65 1010.09 1009.43 1008.69 1007.90 1007.09 1006.28 1005.51 1004.78 1004.11 1003.48 1002.86 1002.23
1004.85 1004.97 1005.19 1005.50 1005.89 1006.31 1006.77 1007.23 1007.70 1008.15 1008.58 1009.01 1009.42 1009.82 1010.21 1010.58 1010.92 1011.23 1011.50 1011.72 1011.88 1011.98 1012.03 1012.02 1011.98 1011.88 1011.75 1011.57 1011.34 1011.04 1010.66 1010.21 1009.67 1009.04 1008.36 1007.62 1006.86 1006.11 1005.39 1004.70 1004.05 1003.43 1002.82 1002.18
1004.34 1004.62 1005.00 1005.48 1006.02 1006.59 1007.16 1007.71 1008.21 1008.67 1009.07 1009.42 1009.73 1010.00 1010.26 1010.50 1010.72 1010.93 1011.12 1011.27 1011.39 1011.46 1011.50 1011.48 1011.43 1011.33 1011.19 1011.00 1010.75 1010.45 1010.08 1009.64 1009.13 1008.56 1007.93 1007.26 1006.58 1005.90 1005.23 1004.58 1003.96 1003.34 1002.71 1002.05
1004.21 1004.60 1005.11 1005.70 1006.35 1007.01 1007.65 1008.23 1008.74 1009.17 1009.51 1009.78 1009.99 1010.15 1010.29 1010.41 1010.53 1010.64 1010.74 1010.83 1010.90 1010.93 1010.94 1010.90 1010.82 1010.69 1010.52 1010.30 1010.04 1009.73 1009.37 1008.96 1008.49 1007.98 1007.44 1006.86 1006.26 1005.65 1005.04 1004.44 1003.82 1003.20 1002.54 1001.84
1004.50 1004.96 1005.54 1006.19 1006.88 1007.58 1008.23 1008.80 1009.29 1009.66 1009.94 1010.12 1010.23 1010.29 1010.32 1010.34 1010.36 1010.38 1010.40 1010.42 1010.43 1010.41 1010.36 1010.28 1010.15 1009.98 1009.77 1009.53 1009.24 1008.93 1008.58 1008.20 1007.80 1007.36 1006.90 1006.42 1005.91 1005.38 1004.83 1004.26 1003.66 1003.02 1002.33 1001.58
1005.19 1005.69 1006.28 1006.94 1007.62 1008.29 1008.90 1009.43 1009.85 1010.16 1010.35 1010.45 1010.47 1010.44 1010.38 1010.30 1010.23 1010.17 1010.11 1010.05 1009.99 1009.90 1009.79 1009.64 1009.46 1009.24 1008.98 1008.70 1008.40 1008.08 1007.76 1007.43 1007.08 1006.73 1006.36 1005.97 1005.56 1005.11 1004.61 1004.07 1003.48 1002.82 1002.10 1001.31
1006.22 1006.72 1007.28 1007.89 1008.51 1009.11 1009.64 1010.08 1010.42 1010.64 1010.75 1010.76 1010.70 1010.58 1010.44 1010.28 1010.13 1009.98 1009.85 1009.71 1009.57 1009.41 1009.22 1009.01 1008.76 1008.48 1008.19 1007.88 1007.57 1007.26 1006.96 1006.68 1006.40 1006.13 1005.85 1005.55 1005.21 1004.83 1004.39 1003.88 1003.29 1002.62 1001.87 1001.06
1007.47 1007.93 1008.43 1008.96 1009.49 1009.97 1010.39 1010.72 1010.95 1011.07 1011.09 1011.02 1010.88 1010.69 1010.47 1010.24 1010.02 1009.80 1009.58 1009.37 1009.15 1008.92 1008.67 1008.39 1008.08 1007.76 1007.43 1007.11 1006.79 1006.50 1006.24 1006.00 1005.78 1005.58 1005.37 1005.14 1004.87 1004.54 1004.15 1003.66 1003.09 1002.42 1001.67 1000.86
1008.78 1009.18 1009.61 1010.03 1010.43 1010.79 1011.08 1011.28 1011.39 1011.41 1011.34 1011.19 1010.97 1010.72 1010.44 1010.15 1009.86 1009.57 1009.29 1009.01 1008.73 1008.43 1008.11 1007.78 1007.43 1007.09 1006.74 1006.41 1006.10 1005.83 1005.59 1005.40 1005.22 1005.07 1004.92 1004.74 1004.52 1004.23 1003.87 1003.41 1002.86 1002.21 1001.49 1000.71
1010.02 1010.35 1010.68 1010.98 1011.25 1011.47 1011.62 1011.70 1011.70 1011.62 1011.46 1011.24 1010.96 1010.65 1010.32 1009.98 1009.63 1009.29 1008.95 1008.60 1008.26 1007.91 1007.54 1007.18 1006.81 1006.44 1006.09 1005.77 1005.47 1005.22 1005.02 1004.85 1004.71 1004.59 1004.46 1004.31 1004.11 1003.86 1003.52 1003.09 1002.57 1001.97 1001.30 1000.60
1011.08 1011.33 1011.56 1011.74 1011.88 1011.96 1011.98 1011.94 1011.84 1011.67 1011.44 1011.15 1010.83 1010.48 1010.10 1009.71 1009.32 1008.92 1008.53 1008.13 1007.73 1007.34 1006.94 1006.55 1006.16 1005.79 1005.44 1005.13 1004.86 1004.63 1004.44 1004.29 1004.17 1004.06 1003.95 1003.81 1003.62 1003.38 1003.07 1002.68 1002.21 1001.68 1001.10 1000.49
1011.91 1012.08 1012.20 1012.26 1012.28 1012.24 1012.15 1012.01 1011.81 1011.57 1011.29 1010.96 1010.60 1010.20 1009.79 1009.36 1008.92 1008.48 1008.03 1007.58 1007.13 1006.69 1006.25 1005.83 1005.43 1005.06 1004.72 1004.42 1004.17 1003.95 1003.78 1003.65 1003.54 1003.43 1003.32 1003.19 1003.02 1002.80 1002.52 1002.17 1001.78 1001.33 1000.87 1000.40
1012.52 1012.60 1012.61 1012.57 1012.47 1012.33 1012.14 1011.92 1011.66 1011.37 1011.04 1010.68 1010.29 1009.87 1009.42 1008.95 1008.46 1007.96 1007.45 1006.93 1006.42 1005.92 1005.44 1004.99 1004.56 1004.18 1003.84 1003.55 1003.31 1003.12 1002.97 1002.85 1002.75 1002.66 1002.56 1002.45 1002.30 1002.11 1001.88 1001.61 1001.30 1000.97 1000.64 1000.33
1012.93 1012.92 1012.83 1012.69 1012.50 1012.28 1012.02 1011.74 1011.44 1011.11 1010.76 1010.37 1009.96 1009.50 1009.02 1008.50 1007.95 1007.37 1006.78 1006.18 1005.59 1005.01 1004.47 1003.96 1003.50 1003.09 1002.75 1002.46 1002.24 1002.07 1001.94 1001.85 1001.78 1001.73 1001.67 1001.59 1001.49 1001.37 1001.22 1001.04 1000.84 1000.65 1000.47 1000.32
1013.19 1013.09 1012.92 1012.69 1012.43 1012.14 1011.84 1011.52 1011.19 1010.84 1010.47 1010.07 1009.63 1009.14 1008.60 1008.02 1007.39 1006.72 1006.03 1005.33 1004.63 1003.96 1003.32 1002.74 1002.23 1001.79 1001.43 1001.14 1000.94 1000.80 1000.72 1000.68 1000.67 1000.67 1000.68 1000.69 1000.68 1000.65 1000.60 1000.55 1000.49 1000.45 1000.43 1000.46
1013.34 1013.15 1012.91 1012.62 1012.31 1011.98 1011.65 1011.31 1010.96 1010.60 1010.21 1009.79 1009.32 1008.79 1008.19 1007.53 1006.80 1006.03 1005.22 1004.39 1003.57 1002.78 1002.04 1001.37 1000.79 1000.31 999.93 999.65 999.47 999.38 999.36 999.40 999.48 999.59 999.71 999.82 999.94 1000.04 1000.13 1000.23 1000.32 1000.44 1000.59 1000.78
1013.38 1013.13 1012.84 1012.51 1012.16 1011.81 1011.46 1011.11 1010.76 1010.39 1009.99 1009.54 1009.03 1008.44 1007.77 1007.02 1006.19 1005.30 1004.36 1003.40 1002.46 1001.54 1000.70 999.94 999.30 998.77 998.38 998.12 997.98 997.95 998.02 998.16 998.36 998.60 998.85 999.12 999.39 999.65 999.90 1000.15 1000.41 1000.68 1000.99 1001.33
1013.34 1013.04 1012.71 1012.36 1012.00 1011.64 1011.29 1010.94 1010.58 1010.19 1009.77 1009.29 1008.73 1008.08 1007.34 1006.50 1005.57 1004.56 1003.51 1002.43 1001.37 1000.36 999.42 998.59 997.90 997.35 996.95 996.72 996.64 996.69 996.86 997.12 997.46 997.84 998.26 998.69 999.12 999.54 999.96 1000.37 1000.79 1001.21 1001.65 1002.12
Thickness
5522 5521 5516 5515 5514 5508 5502 5512 5517 5534 5532 5537 5534 5529 5526 5523 5520 5517 5514 5511 5507 5505 5504 5503 5501 5499 5496 5494 5491 5490 5488 5487 5486 5486 5487 5487 5487 5487 5488 5490 5494 5497 5499 5502
5510 5511 5508 5506 5516 5514 5509 5509 5512 5517 5523 5532 5526 5522 5519 5517 5514 5511 5509 5505 5502 5499 5498 5497 5495 5494 5492 5490 5487 5485 5483 5481 5481 5481 5481 5481 5481 5481 5482 5484 5487 5490 5492 5496
5514 5505 5499 5517 5527 5518 5515 5515 5512 5514 5525 5526 5520 5517 5514 5511 5508 5505 5503 5499 5496 5495 5493 5491 5490 5487 5485 5484 5482 5479 5477 5476 5474 5474 5474 5475 5475 5475 5476 5478 5480 5483 5486 5489
5497 5495 5506 5541 5528 5522 5517 5517 5512 5512 5517 5516 5514 5511 5508 5505 5502 5500 5496 5493 5491 5489 5488 5486 5484 5481 5479 5478 5476 5474 5472 5470 5469 5468 5469 5469 5469 5469 5470 5472 5474 5476 5479 5483
5485 5496 5519 5532 5521 5512 5508 5514 5515 5510 5510 5509 5506 5504 5508 5503 5497 5493 5490 5487 5485 5483 5481 5479 5478 5476 5473 5472 5471 5469 5467 5465 5463 5462 5462 5462 5463 5464 5464 5466 5468 5471 5474 5477
5477 5488 5513 5533 5514 5505 5503 5510 5516 5507 5505 5502 5495 5498 5506 5500 5492 5487 5483 5481 5478 5476 5475 5473 5471 5468 5467 5466 5464 5462 5460 5458 5457 5456 5456 5456 5457 5457 5459 5461 5463 5466 5469 5472
5476 5484 5511 5519 5499 5494 5500 5516 5510 5503 5499 5493 5489 5492 5492 5487 5483 5479 5476 5473 5471 5468 5467 5466 5463 5460 5459 5458 5457 5455 5452 5451 5450 5449 5449 5450 5451 5452 5453 5456 5458 5462 5465 5468
5475 5478 5503 5503 5488 5494 5506 5503 5498 5494 5491 5486 5484 5482 5480 5477 5475 5472 5469 5466 5463 5461 5460 5458 5455 5452 5452 5451 5449 5447 5446 5445 5445 5444 5444 5444 5445 5447 5449 5451 5454 5457 5460 5464
5492 5507 5509 5497 5496 5495 5491 5490 5488 5485 5481 5477 5474 5473 5471 5469 5467 5464 5461 5459 5456 5453 5452 5450 5447 5445 5444 5443 5441 5440 5439 5439 5439 5439 5439 5439 5441 5443 5445 5446 5449 5451 5454 5457
5483 5496 5494 5488 5487 5482 5478 5478 5477 5474 5471 5467 5465 5465 5463 5461 5458 5456 5453 5450 5446 5444 5443 5442 5439 5436 5435 5434 5432 5432 5432 5432 5432 5432 5433 5434 5434 5436 5438 5440 5443 5445 5448 5451
5477 5487 5480 5479 5477 5474 5471 5468 5465 5462 5460 5457 5456 5455 5453 5451 5449 5447 5443 5440 5437 5435 5434 5433 5430 5428 5426 5424 5423 5424 5424 5425 5425 5425 5426 5428 5429 5430 5431 5434 5436 5439 5442 5444
5484 5486 5478 5479 5474 5468 5464 5461 5458 5454 5451 5449 5446 5445 5443 5442 5440 5437 5434 5431 5428 5427 5425 5424 5421 5419 5417 5415 5414 5415 5417 5417 5417 5418 5420 5421 5423 5425 5426 5427 5429 5432 5434 5437
5476 5470 5467 5467 5463 5458 5455 5452 5447 5444 5442 5440 5437 5435 5433 5431 5429 5427 5424 5422 5420 5418 5416 5414 5412 5411 5409 5406 5406 5407 5408 5409 5409 5411 5413 5414 5415 5418 5421 5424 5425 5427 5429 5431
5458 5454 5453 5453 5451 5446 5443 5439 5436 5433 5431 5429 5426 5424 5422 5420 5419 5417 5415 5414 5411 5409 5407 5405 5404 5403 5401 5399 5399 5399 5400 5400 5401 5403 5405 5407 5408 5410 5413 5416 5419 5422 5423 5425
5446 5444 5444 5442 5438 5433 5429 5426 5425 5424 5421 5417 5415 5413 5411 5410 5409 5407 5406 5404 5401 5400 5399 5397 5396 5395 5393 5392 5392 5392 5393 5394 5395 5396 5397 5399 5401 5403 5406 5407 5410 5413 5415 5417
5434 5430 5429 5428 5425 5422 5419 5416 5415 5414 5411 5408 5405 5403 5400 5399 5398 5397 5395 5393 5391 5391 5390 5389 5388 5387 5385 5384 5384 5385 5386 5386 5386 5388 5389 5391 5393 5396 5398 5399 5401 5404 5406 5408
5422 5421 5419 5417 5415 5411 5408 5406 5404 5402 5399 5397 5394 5392 5389 5388 5387 5387 5385 5383 5381 5380 5379 5379 5379 5378 5377 5376 5377 5378 5378 5378 5378 5379 5381 5382 5384 5387 5389 5391 5393 5395 5398 5399
5412 5412 5409 5407 5404 5400 5397 5394 5391 5389 5386 5384 5382 5380 5378 5377 5377 5376 5374 5372 5371 5371 5371 5370 5369 5369 5368 5368 5368 5369 5370 5370 5371 5372 5373 5375 5376 5378 5380 5382 5385 5388 5390 5392
5395 5395 5393 5391 5389 5387 5384 5382 5379 5376 5374 5371 5370 5369 5368 5366 5365 5364 5363 5362 5362 5363 5363 5361 5360 5360 5360 5360 5359 5360 5361 5362 5362 5363 5364 5366 5368 5369 5371 5374 5377 5380 5382 5384
5380 5379 5378 5376 5374 5372 5371 5368 5365 5363 5361 5359 5358 5357 5356 5355 5354 5353 5353 5353 5353 5353 5352 5351 5351 5351 5350 5350 5350 5351 5352 5353 5354 5355 5356 5357 5359 5361 5363 5366 5369 5372 5375 5377
5366 5364 5363 5361 5359 5357 5355 5353 5352 5350 5348 5347 5346 5345 5344 5344 5343 5342 5343 5345 5345 5342 5342 5341 5342 5341 5341 5341 5341 5342 5343 5344 5346 5347 5348 5350 5351 5353 5356 5359 5362 5365 5368 5371
5351 5350 5348 5346 5344 5342 5341 5339 5338 5337 5336 5335 5334 5333 5333 5333 5333 5333 5333 5333 5334 5333 5333 5333 5333 5332 5332 5332 5334 5334 5335 5337 5338 5339 5341 5343 5345 5347 5350 5353 5355 5358 5362 5365
5336 5335 5334 5332 5331 5329 5327 5326 5325 5325 5324 5323 5323 5323 5323 5323 5323 5323 5325 5325 5324 5324 5324 5325 5325 5325 5325 5326 5327 5328 5328 5329 5331 5333 5334 5336 5339 5341 5343 5347 5349 5352 5355 5358
5322 5321 5319 5318 5317 5317 5316 5315 5314 5313 5312 5312 5312 5312 5312 5313 5315 5315 5314 5315 5315 5316 5316 5317 5317 5318 5319 5319 5320 5321 5322 5323 5325 5327 5329 5331 5333 5335 5337 5341 5344 5347 5350 5353
5308 5307 5306 5306 5306 5306 5304 5303 5302 5303 5303 5303 5303 5303 5303 5303 5304 5305 5306 5307 5308 5308 5309 5310 5311 5311 5312 5312 5312 5314 5315 5317 5320 5321 5324 5326 5328 5331 5333 5336 5339 5343 5346 5349
5294 5295 5294 5293 5293 5292 5292 5293 5293 5293 5293 5294 5294 5295 5295 5295 5296 5297 5298 5300 5300 5302 5303 5304 5304 5305 5305 5306 5307 5308 5310 5313 5315 5318 5320 5322 5325 5327 5330 5333 5337 5340 5344 5347
5282 5283 5282 5283 5282 5282 5282 5282 5282 5282 5283 5283 5285 5286 5287 5287 5289 5290 5291 5293 5295 5296 5297 5298 5299 5300 5301 5302 5303 5305 5307 5310 5312 5314 5317 5319 5322 5325 5328 5331 5335 5338 5341 5344